Corona, CA

8:15 AM PST on January 23, 2018 (GMT -0800)
Corona Municipal

Weather History for KAJO - April, 2014

Change the Weather History Date:

Wednesday, April 9, 2014

  Actual Average (KCNO) Record (KCNO)
Temperature  
Mean Temperature 68 °F -  
Max Temperature 95 °F 68 °F 93 °F (2014)
Min Temperature 43 °F 42 °F 34 °F (1999)
Cooling Degree Days 3    
Growing Degree Days 18 (Base 50)    
Moisture  
Dew Point 32 °F    
Average Humidity 38    
Maximum Humidity 76    
Minimum Humidity 4    
Precipitation  
Precipitation 0.00 in - - ()
Sea Level Pressure  
Sea Level Pressure 29.99 in    
Wind  
Wind Speed 2 mph (West)    
Max Wind Speed 14 mph    
Max Gust Speed -    
Visibility 10 miles    
Events      
Averages and records for this station are not official NWS values.
T = Trace of Precipitation, MM = Missing Value Source: NWS Daily Summary

Daily Weather History Graph

Daily Weather History Graph

Search for Another Location

Airport or City:

Trip Planner

Search our weather history database for the weather conditions in past years. The results will help you decide how hot, cold, wet, or windy it might be!

Date:

Astronomy

Apr. 09, 2014 Rise Set
Actual Time 6:27 AM PDT 7:17 PM PDT
Civil Twilight 6:01 AM PDT 7:42 PM PDT
Nautical Twilight 5:31 AM PDT 8:12 PM PDT
Astronomical Twilight 5:00 AM PDT 8:43 PM PDT
Moon 2:23 PM PDT (4/9) 3:04 AM PDT (4/9)
Length of Visible Light 13h 40m
Length of Day
12h 50m
Waxing Gibbous, 72% of the Moon is Illuminated
Apr 9
Waxing Gibbous
Apr 15
Full
Apr 22
Last Quarter
Apr 28
New
May 6
First Quarter

Hourly Weather History & Observations

Time (PDT) Temp. Dew Point Humidity Pressure Visibility Wind Dir Wind Speed Gust Speed Precip Events Conditions
12:56 AM 50.9 °F 36.9 °F 59% 30.04 in 10.0 mi Calm Calm - N/A   Clear
1:56 AM 48.9 °F 36.9 °F 63% 30.03 in 10.0 mi Calm Calm - N/A   Clear
2:56 AM 47.8 °F 36.9 °F 66% 30.02 in 10.0 mi Calm Calm - N/A   Clear
3:56 AM 45.9 °F 36.9 °F 71% 30.01 in 10.0 mi Calm Calm - N/A   Clear
4:56 AM 45.9 °F 36.9 °F 71% 30.01 in 10.0 mi Calm Calm - N/A   Clear
5:56 AM 43.9 °F 36.9 °F 76% 30.01 in 10.0 mi Calm Calm - N/A   Clear
6:56 AM 45.9 °F 37.9 °F 74% 30.02 in 10.0 mi Calm Calm - N/A   Clear
7:56 AM 52.9 °F 41.9 °F 66% 30.03 in 10.0 mi Calm Calm - N/A   Clear
8:56 AM 61.9 °F 41.0 °F 46% 30.03 in 10.0 mi Calm Calm - N/A   Partly Cloudy
9:56 AM 70.9 °F 38.8 °F 31% 30.03 in 10.0 mi Variable 3.5 mph - N/A   Clear
10:56 AM 77.9 °F 39.9 °F 26% 30.03 in 10.0 mi Calm Calm - N/A   Clear
11:56 AM 83.8 °F 36.0 °F 18% 30.01 in 10.0 mi Calm Calm - N/A   Partly Cloudy
12:56 PM 88.9 °F 32.9 °F 14% 29.99 in 10.0 mi Variable 4.6 mph - N/A   Clear
1:56 PM 92.8 °F 19.0 °F 7% 29.96 in 10.0 mi NNW 4.6 mph - N/A   Clear
2:56 PM 93.9 °F 3.0 °F 4% 29.94 in 10.0 mi West 11.5 mph - N/A   Clear
3:56 PM 93.9 °F 3.0 °F 4% 29.92 in 10.0 mi West 10.4 mph - N/A   Clear
4:56 PM 91.9 °F 6.1 °F 4% 29.92 in 10.0 mi West 13.8 mph - N/A   Clear
5:56 PM 88.0 °F 34.0 °F 15% 29.92 in 10.0 mi West 12.7 mph - N/A   Clear
6:56 PM 81.0 °F 36.9 °F 21% 29.93 in 10.0 mi West 10.4 mph - N/A   Clear
7:56 PM 75.9 °F 34.9 °F 22% 29.94 in 10.0 mi NNW 4.6 mph - N/A   Clear
8:56 PM 68.9 °F 36.0 °F 30% 29.96 in 10.0 mi West 3.5 mph - N/A   Clear
9:56 PM 70.0 °F 34.9 °F 28% 29.98 in 10.0 mi WSW 3.5 mph - N/A   Clear
10:56 PM 63.0 °F 36.9 °F 38% 29.98 in 10.0 mi Calm Calm - N/A   Clear
11:56 PM 54.0 °F 36.0 °F 51% 29.98 in 10.0 mi Calm Calm - N/A   Clear